| time (UTC) | temp F | wind direction | speed MPH | gust MPH | rain 1hr in | rain 24hr in | rain mn in | humidity % | barometer mb |
| 20260510043752 | 64 | 346 | 1.0 | 1.0 | 0.00 | 0.01 | 0.01 | 64 | 1028.5 |
| 20260510042247 | 64 | 330 | 0.0 | 1.0 | 0.00 | 0.01 | 0.01 | 63 | 1028.6 |
| 20260510040744 | 64 | 314 | 0.0 | 1.0 | 0.00 | 0.01 | 0.01 | 63 | 1028.5 |
| 20260510035244 | 64 | 278 | 0.0 | 0.0 | 0.00 | 0.01 | 0.01 | 64 | 1028.7 |
| 20260510033740 | 64 | 291 | 0.0 | 0.0 | 0.00 | 0.01 | 0.01 | 64 | 1028.8 |
| 20260510032236 | 67 | 67 | 2.0 | 2.0 | 0.00 | 0.01 | 0.01 | 59 | 1029.1 |
| 20260510030733 | 68 | 312 | 0.0 | 1.0 | 0.00 | 0.01 | 0.01 | 58 | 1029.0 |
| 20260510025231 | 65 | 331 | 0.0 | 1.0 | 0.00 | 0.01 | 0.01 | 64 | 1029.3 |
| 20260510023731 | 62 | 345 | 0.0 | 0.0 | 0.00 | 0.01 | 0.01 | 66 | 1029.5 |
| 20260510022231 | 63 | 334 | 1.0 | 1.0 | 0.00 | 0.01 | 0.01 | 66 | 1029.9 |
| 20260510020730 | 63 | 309 | 1.0 | 2.0 | 0.00 | 0.01 | 0.01 | 65 | 1030.1 |
| 20260510015229 | 62 | 318 | 1.0 | 1.0 | 0.00 | 0.01 | 0.01 | 67 | 1030.2 |
| 20260510013729 | 62 | 285 | 1.0 | 1.0 | 0.00 | 0.01 | 0.01 | 68 | 1030.3 |
| 20260510012226 | 61 | 278 | 0.0 | 0.0 | 0.00 | 0.01 | 0.01 | 68 | 1030.3 |
| 20260510010725 | 60 | 281 | 0.0 | 0.0 | 0.00 | 0.01 | 0.01 | 70 | 1030.4 |
| 20260510005220 | 60 | 305 | 0.0 | 0.0 | 0.00 | 0.01 | 0.01 | 71 | 1030.3 |
| 20260510003719 | 60 | 285 | 0.0 | 0.0 | 0.00 | 0.01 | 0.01 | 72 | 1030.4 |
| 20260510002217 | 60 | 41 | 0.0 | 0.0 | 0.00 | 0.01 | 0.01 | 73 | 1030.3 |
| 20260510000713 | 59 | 31 | 1.0 | 2.0 | 0.00 | 0.01 | 0.01 | 74 | 1030.5 |
| 20260509235210 | 59 | 268 | 0.0 | 0.0 | 0.00 | 0.01 | 0.01 | 76 | 1030.5 |
| 20260509233707 | 58 | 18 | 0.0 | 0.0 | 0.00 | 0.01 | 0.01 | 75 | 1030.7 |
| 20260509232203 | 58 | 270 | 0.0 | 0.0 | 0.00 | 0.01 | 0.01 | 77 | 1030.5 |
| 20260509230700 | 57 | 161 | 2.0 | 3.0 | 0.00 | 0.01 | 0.01 | 79 | 1030.4 |
| 20260509225200 | 57 | 299 | 0.0 | 0.0 | 0.00 | 0.01 | 0.01 | 81 | 1030.3 |
| 20260509223656 | 56 | 299 | 1.0 | 1.0 | 0.00 | 0.01 | 0.01 | 81 | 1029.9 |
| 20260509222151 | 55 | 268 | 0.0 | 0.0 | 0.00 | 0.01 | 0.01 | 84 | 1029.9 |
| 20260509220651 | 54 | 274 | 0.0 | 0.0 | 0.00 | 0.01 | 0.01 | 86 | 1029.7 |
| 20260509215146 | 53 | 270 | 0.0 | 0.0 | 0.00 | 0.01 | 0.01 | 91 | 1029.6 |
| 20260509213643 | 52 | 261 | 0.0 | 0.0 | 0.00 | 0.01 | 0.01 | 91 | 1029.5 |
| 20260509212138 | 52 | 272 | 0.0 | 0.0 | 0.00 | 0.01 | 0.01 | 90 | 1029.1 |
| 20260509210634 | 53 | 266 | 0.0 | 1.0 | 0.00 | 0.01 | 0.01 | 90 | 1029.2 |
| 20260509205132 | 52 | 253 | 0.0 | 0.0 | 0.07 | 0.01 | 0.01 | 91 | 1029.0 |
| 20260509203632 | 52 | 271 | 0.0 | 0.0 | 0.00 | 0.00 | 0.00 | 92 | 1028.9 |
| 20260509202132 | 51 | 218 | 0.0 | 0.0 | 0.00 | 0.00 | 0.00 | 92 | 1028.7 |
| 20260509200632 | 51 | 258 | 0.0 | 0.0 | 0.00 | 0.00 | 0.00 | 93 | 1028.7 |
| 20260509195131 | 51 | 239 | 0.0 | 0.0 | 0.00 | 0.00 | 0.00 | 93 | 1028.6 |
| 20260509193629 | 51 | 246 | 0.0 | 0.0 | 0.00 | 0.00 | 0.00 | 93 | 1028.3 |
| 20260509192129 | 51 | 242 | 0.0 | 1.0 | 0.00 | 0.00 | 0.00 | 93 | 1028.3 |
| 20260509190628 | 51 | 262 | 0.0 | 0.0 | 0.00 | 0.00 | 0.00 | 92 | 1028.3 |
| 20260509185125 | 52 | 257 | 0.0 | 0.0 | 0.00 | 0.00 | 0.00 | 92 | 1028.1 |
| 20260509183622 | 52 | 255 | 0.0 | 0.0 | 0.00 | 0.00 | 0.00 | 94 | 1028.0 |
| 20260509182116 | 51 | 268 | 0.0 | 0.0 | 0.00 | 0.00 | 0.00 | 94 | 1028.1 |
| 20260509180614 | 52 | 229 | 0.0 | 0.0 | 0.00 | 0.00 | 0.00 | 95 | 1027.9 |
| 20260509175109 | 52 | 265 | 0.0 | 0.0 | 0.00 | 0.00 | 0.00 | 95 | 1027.9 |
| 20260509173607 | 53 | 248 | 0.0 | 0.0 | 0.00 | 0.00 | 0.00 | 95 | 1028.1 |
| 20260509172102 | 53 | 265 | 0.0 | 0.0 | 0.00 | 0.00 | 0.00 | 95 | 1028.1 |
| 20260509170556 | 53 | 257 | 0.0 | 0.0 | 0.00 | 0.00 | 0.00 | 94 | 1028.2 |
| 20260509165052 | 53 | 253 | 0.0 | 0.0 | 0.00 | 0.00 | 0.00 | 94 | 1028.4 |
| 20260509163548 | 54 | 252 | 0.0 | 0.0 | 0.00 | 0.00 | 0.00 | 94 | 1028.3 |
| 20260509162047 | 54 | 246 | 0.0 | 0.0 | 0.00 | 0.00 | 0.00 | 94 | 1028.4 |
| 20260509160547 | 53 | 263 | 0.0 | 0.0 | 0.00 | 0.00 | 0.00 | 94 | 1028.5 |
| 20260509155046 | 52 | 261 | 0.0 | 0.0 | 0.00 | 0.00 | 0.00 | 93 | 1028.6 |
| 20260509153543 | 53 | 255 | 0.0 | 0.0 | 0.00 | 0.00 | 0.00 | 93 | 1028.7 |
| 20260509152039 | 53 | 259 | 0.0 | 0.0 | 0.00 | 0.00 | 0.00 | 93 | 1028.6 |
| 20260509150536 | 53 | 247 | 0.0 | 0.0 | 0.00 | 0.00 | 0.00 | 93 | 1028.8 |
| 20260509145036 | 53 | 264 | 0.0 | 0.0 | 0.00 | 0.00 | 0.00 | 93 | 1028.8 |
| 20260509143534 | 53 | 264 | 0.0 | 0.0 | 0.00 | 0.00 | 0.00 | 92 | 1028.6 |
| 20260509142035 | 53 | 283 | 0.0 | 0.0 | 0.00 | 0.00 | 0.00 | 92 | 1028.9 |
| 20260509140531 | 53 | 266 | 0.0 | 0.0 | 0.00 | 0.00 | 0.00 | 91 | 1028.8 |
| 20260509135029 | 54 | 283 | 0.0 | 0.0 | 0.00 | 0.00 | 0.00 | 90 | 1028.7 |
| 20260509133526 | 54 | 256 | 0.0 | 0.0 | 0.00 | 0.00 | 0.00 | 90 | 1028.9 |
| 20260509132026 | 54 | 257 | 0.0 | 0.0 | 0.00 | 0.00 | 0.00 | 88 | 1028.9 |
| 20260509130525 | 55 | 217 | 0.0 | 1.0 | 0.00 | 0.00 | 0.00 | 86 | 1029.1 |
| 20260509125021 | 56 | 246 | 0.0 | 0.0 | 0.00 | 0.00 | 0.00 | 85 | 1028.9 |
| 20260509123519 | 55 | 201 | 0.0 | 1.0 | 0.00 | 0.00 | 0.00 | 86 | 1029.0 |
| 20260509122015 | 55 | 219 | 1.0 | 2.0 | 0.00 | 0.00 | 0.00 | 88 | 1029.0 |
| 20260509120513 | 54 | 224 | 1.0 | 1.0 | 0.00 | 0.00 | 0.00 | 89 | 1028.7 |
| 20260509115012 | 55 | 263 | 0.0 | 0.0 | 0.00 | 0.00 | 0.00 | 89 | 1028.9 |
| 20260509113512 | 55 | 224 | 0.0 | 0.0 | 0.00 | 0.00 | 0.00 | 88 | 1028.7 |
| 20260509112008 | 55 | 231 | 0.0 | 0.0 | 0.00 | 0.00 | 0.00 | 88 | 1028.7 |
| 20260509110504 | 55 | 271 | 0.0 | 0.0 | 0.00 | 0.00 | 0.00 | 88 | 1028.9 |
| 20260509105003 | 55 | 248 | 0.0 | 0.0 | 0.00 | 0.00 | 0.00 | 88 | 1028.7 |
| 20260509103500 | 56 | 260 | 0.0 | 0.0 | 0.00 | 0.00 | 0.00 | 86 | 1028.8 |
| 20260509101957 | 55 | 78 | 0.0 | 1.0 | 0.00 | 0.00 | 0.00 | 88 | 1029.0 |
| 20260509100454 | 56 | 265 | 0.0 | 0.0 | 0.00 | 0.00 | 0.00 | 87 | 1028.7 |
| 20260509094950 | 56 | 207 | 0.0 | 1.0 | 0.00 | 0.00 | 0.00 | 88 | 1028.7 |
| 20260509093448 | 56 | 270 | 0.0 | 1.0 | 0.00 | 0.00 | 0.00 | 88 | 1028.7 |
| 20260509091947 | 56 | 241 | 0.0 | 0.0 | 0.00 | 0.00 | 0.00 | 88 | 1028.6 |
| 20260509090444 | 57 | 249 | 0.0 | 0.0 | 0.00 | 0.00 | 0.00 | 87 | 1028.6 |
| 20260509084940 | 57 | 250 | 0.0 | 0.0 | 0.00 | 0.00 | 0.00 | 84 | 1028.6 |
| 20260509083438 | 57 | 256 | 0.0 | 0.0 | 0.00 | 0.00 | 0.00 | 85 | 1028.4 |
| 20260509081935 | 58 | 251 | 0.0 | 0.0 | 0.00 | 0.00 | 0.00 | 85 | 1028.4 |
| 20260509080433 | 59 | 265 | 0.0 | 0.0 | 0.00 | 0.00 | 0.00 | 86 | 1028.2 |
| 20260509074931 | 59 | 259 | 0.0 | 0.0 | 0.00 | 0.00 | 0.00 | 85 | 1028.3 |
| 20260509073427 | 61 | 259 | 0.0 | 0.0 | 0.00 | 0.00 | 0.00 | 86 | 1028.1 |
| 20260509071922 | 61 | 272 | 0.0 | 0.0 | 0.00 | 0.00 | 0.00 | 85 | 1028.1 |
| 20260509070420 | 62 | 272 | 0.0 | 0.0 | 0.00 | 0.00 | 0.00 | 85 | 1028.2 |
| 20260509064919 | 62 | 282 | 0.0 | 0.0 | 0.00 | 0.00 | 0.00 | 84 | 1028.0 |
| 20260509063415 | 62 | 287 | 0.0 | 0.0 | 0.00 | 0.00 | 0.00 | 84 | 1027.9 |
| 20260509061913 | 62 | 284 | 0.0 | 0.0 | 0.00 | 0.00 | 0.00 | 85 | 1028.1 |
| 20260509060410 | 62 | 275 | 0.0 | 0.0 | 0.00 | 0.00 | 0.00 | 85 | 1027.8 |
| 20260509054910 | 62 | 271 | 0.0 | 0.0 | 0.00 | 0.00 | 0.00 | 82 | 1028.0 |
| 20260509053408 | 64 | 278 | 2.0 | 3.0 | 0.00 | 0.00 | 0.00 | 79 | 1028.1 |
| 20260509051907 | 62 | 285 | 0.0 | 0.0 | 0.00 | 0.00 | 0.00 | 82 | 1028.1 |
| 20260509050404 | 62 | 332 | 2.0 | 2.0 | 0.00 | 0.00 | 0.00 | 84 | 1028.0 |